Temp
38 38 39 40 38 39 39 38 32 27 28 31 31 35 37 37 40 38 37 45 47 48 48 48 49 49 50 50 51 51 52 52 52 53 53 53 54 55
37 38 38 38 37 37 35 33 32 31 26 31 31 33 36 42 41 37 39 44 46 46 47 47 47 48 49 49 50 50 50 50 50 51 51 52 52 52
34 34 35 36 33 33 33 32 31 31 27 30 32 34 34 34 36 37 38 37 37 45 46 46 46 47 47 48 48 49 49 49 49 49 49 50 51 51
33 33 34 38 32 32 31 30 30 30 30 28 31 31 32 34 34 34 39 43 38 45 45 45 46 46 46 47 47 47 47 47 47 47 48 48 49 49
34 34 34 34 32 32 32 31 31 35 31 30 29 31 31 33 32 33 35 35 41 45 46 46 46 45 45 45 45 45 45 45 46 46 47 47 47 48
33 34 35 34 33 32 33 32 33 31 30 29 29 29 30 32 31 30 30 32 33 41 43 44 43 44 44 45 45 44 44 44 45 46 46 46 46 46
31 33 32 36 39 38 34 31 31 30 30 29 28 28 29 29 29 30 30 30 32 33 33 34 34 34 36 42 43 44 44 44 44 45 45 45 45 45
29 30 32 35 36 39 39 38 34 26 27 27 28 27 28 29 30 30 29 28 25 32 31 32 33 32 34 35 43 44 44 44 44 44 44 44 44 44
29 30 33 36 35 33 36 37 36 38 36 27 24 25 25 29 29 28 28 28 27 31 30 29 32 31 34 40 44 45 45 44 43 43 43 43 43 43
29 29 29 29 31 31 31 30 31 32 32 35 30 29 30 31 31 32 30 29 30 31 31 26 30 30 32 33 42 44 44 44 43 42 42 42 42 42
30 29 29 29 36 36 30 25 28 30 37 39 39 40 39 40 38 29 26 22 26 29 31 28 30 30 31 31 33 42 43 42 42 42 42 42 42 42
29 29 36 31 36 37 29 23 21 27 29 30 31 33 35 33 40 33 27 23 25 24 31 27 28 29 25 30 31 32 32 39 41 41 41 41 41 33
29 29 30 37 36 36 36 26 26 30 31 28 27 28 29 29 30 31 31 30 25 24 31 29 21 24 23 27 28 31 31 31 31 33 39 40 40 39
26 29 29 36 36 36 34 35 36 36 26 24 25 26 27 27 29 31 32 31 31 30 31 31 17 22 14 22 24 28 28 29 29 30 30 36 38 39
29 31 35 36 35 33 35 35 35 24 23 20 20 24 26 27 29 28 30 30 30 30 34 31 28 27 22 24 26 26 28 28 29 28 29 30 29 30
32 27 31 32 34 32 32 30 28 26 23 22 22 23 25 24 24 25 23 25 22 25 30 30 30 29 25 26 27 27 28 25 26 26 28 29 29 31
27 22 21 22 23 24 24 24 24 23 22 21 21 23 25 26 26 25 24 21 18 21 22 23 28 29 29 27 25 27 26 25 27 27 27 26 28 29
23 18 19 20 19 20 20 20 21 23 22 22 20 20 20 20 21 22 23 19 20 22 22 19 21 22 23 27 32 27 28 26 27 27 27 23 24 28
21 16 15 14 13 14 15 16 15 19 22 17 16 17 20 20 21 19 20 20 20 21 22 20 18 15 18 17 26 35 26 27 26 24 26 25 23 27
17 16 16 15 11 10 10 11 14 15 15 17 15 15 14 14 13 16 17 16 17 19 19 21 21 20 18 19 20 25 34 27 25 24 22 25 27 32
17 16 16 14 11 10 10 10 10 11 13 12 14 14 14 10 14 16 17 21 22 18 16 18 22 30 21 18 19 22 26 31 30 25 23 20 20 22
16 15 14 15 13 11 9 9 7 9 10 11 11 12 14 14 14 16 16 15 16 17 17 20 20 19 12 18 17 18 17 21 28 31 32 30 23 19
15 15 13 13 14 12 9 8 7 9 8 9 9 11 13 13 16 17 17 17 16 16 16 16 17 17 18 18 20 19 18 18 21 21 23 30 31 32
MSLP
1033.01 1033.21 1033.53 1033.84 1033.99 1034.04 1034.18 1034.38 1035.08 1036.22 1036.97 1037.13 1037.32 1037.17 1037.15 1037.24 1037.13 1037.14 1037.14 1036.92 1036.79 1036.65 1036.50 1036.38 1036.25 1036.16 1036.04 1035.88 1035.71 1035.58 1035.48 1035.36 1035.26 1035.15 1035.01 1034.81 1034.56 1034.35
1033.52 1033.66 1034.02 1034.36 1034.65 1034.60 1034.76 1035.08 1035.06 1035.55 1036.77 1037.03 1037.22 1037.35 1037.26 1037.16 1037.18 1037.19 1037.12 1037.02 1036.94 1036.84 1036.72 1036.59 1036.47 1036.33 1036.17 1036.05 1035.90 1035.85 1035.84 1035.81 1035.70 1035.53 1035.38 1035.20 1034.97 1034.76
1034.02 1034.35 1034.67 1034.92 1035.22 1035.34 1035.52 1035.55 1035.54 1035.57 1036.51 1037.10 1037.14 1037.29 1037.43 1037.51 1037.48 1037.35 1037.16 1037.10 1037.09 1036.93 1036.87 1036.80 1036.70 1036.55 1036.38 1036.14 1036.11 1036.07 1036.03 1036.04 1035.98 1035.87 1035.70 1035.46 1035.22 1034.97
1034.50 1034.87 1035.16 1035.20 1035.72 1035.86 1036.05 1036.14 1036.18 1036.07 1036.36 1037.18 1037.33 1037.42 1037.50 1037.46 1037.56 1037.57 1037.34 1037.06 1037.08 1036.88 1036.86 1036.83 1036.74 1036.69 1036.54 1036.38 1036.28 1036.26 1036.25 1036.26 1036.20 1036.07 1035.85 1035.62 1035.37 1035.11
1034.75 1035.02 1035.38 1035.64 1035.92 1036.14 1036.30 1036.47 1036.59 1036.64 1036.63 1037.11 1037.51 1037.57 1037.70 1037.61 1037.74 1037.64 1037.43 1037.34 1037.04 1036.79 1036.66 1036.72 1036.66 1036.71 1036.73 1036.56 1036.45 1036.37 1036.33 1036.26 1036.15 1036.02 1035.87 1035.67 1035.46 1035.24
1035.07 1035.28 1035.48 1035.74 1036.02 1036.27 1036.47 1036.74 1036.91 1037.05 1037.17 1037.42 1037.63 1037.77 1037.78 1037.81 1037.88 1037.91 1037.84 1037.74 1037.57 1036.97 1036.74 1036.67 1036.74 1036.67 1036.68 1036.49 1036.35 1036.35 1036.34 1036.16 1036.03 1035.90 1035.80 1035.69 1035.52 1035.27
1035.64 1035.81 1036.03 1036.00 1035.99 1036.13 1036.63 1037.08 1037.19 1037.31 1037.53 1037.79 1037.96 1037.95 1037.96 1037.98 1038.03 1037.96 1037.91 1037.83 1037.56 1037.22 1037.16 1037.04 1037.01 1036.90 1036.74 1036.47 1036.20 1036.01 1036.05 1036.07 1035.87 1035.82 1035.61 1035.49 1035.40 1035.24
1036.17 1036.37 1036.39 1036.46 1036.54 1036.54 1036.65 1036.82 1037.30 1037.55 1037.84 1038.06 1038.22 1038.22 1038.17 1038.12 1037.99 1038.05 1038.00 1037.96 1037.93 1037.40 1037.41 1037.19 1037.00 1036.97 1036.77 1036.43 1036.01 1035.93 1035.91 1035.84 1035.74 1035.66 1035.46 1035.28 1035.13 1035.06
1036.40 1036.61 1036.58 1036.71 1036.90 1037.15 1037.05 1037.18 1037.32 1037.28 1037.45 1038.07 1038.35 1038.39 1038.38 1038.16 1038.27 1038.07 1037.98 1038.05 1037.99 1037.60 1037.57 1037.27 1037.01 1036.94 1036.53 1036.14 1035.71 1035.49 1035.49 1035.48 1035.49 1035.42 1035.25 1035.11 1034.94 1034.82
1036.46 1036.77 1036.97 1037.14 1037.21 1037.32 1037.43 1037.57 1037.67 1037.73 1037.72 1037.73 1038.02 1038.21 1038.18 1038.04 1038.07 1037.86 1037.97 1038.01 1037.78 1037.54 1037.38 1037.23 1036.83 1036.62 1036.30 1036.03 1035.64 1035.26 1035.14 1035.09 1035.19 1035.22 1035.10 1034.98 1034.75 1034.59
1036.58 1036.83 1037.06 1037.14 1036.89 1037.11 1037.60 1037.79 1037.85 1037.82 1037.48 1037.34 1037.26 1037.25 1037.30 1037.31 1037.36 1037.80 1037.85 1037.99 1037.63 1037.26 1037.01 1036.90 1036.61 1036.23 1036.02 1035.92 1035.52 1035.11 1034.90 1035.07 1035.06 1034.98 1034.75 1034.60 1034.41 1034.22
1036.70 1036.82 1036.56 1037.06 1036.87 1036.82 1037.52 1037.82 1037.91 1037.73 1037.74 1037.59 1037.40 1037.20 1037.10 1037.17 1036.85 1037.01 1037.54 1037.48 1037.42 1037.06 1036.67 1036.76 1036.53 1036.42 1036.12 1035.45 1035.15 1035.09 1035.05 1034.94 1034.75 1034.65 1034.54 1034.29 1034.09 1034.04
1036.58 1036.72 1036.71 1036.37 1036.60 1036.76 1036.82 1037.59 1037.44 1037.27 1037.23 1037.39 1037.46 1037.37 1037.25 1037.09 1036.88 1036.72 1036.70 1036.79 1036.88 1036.67 1036.45 1036.38 1036.35 1036.29 1036.30 1035.67 1035.35 1035.14 1034.98 1034.76 1034.65 1034.50 1034.27 1034.07 1033.87 1033.61
1036.43 1036.49 1036.57 1036.24 1036.34 1036.52 1036.70 1036.68 1036.50 1036.40 1037.24 1037.33 1037.29 1037.19 1037.07 1036.85 1036.58 1036.38 1036.35 1036.32 1036.19 1036.01 1035.85 1035.85 1036.21 1036.13 1035.87 1035.42 1035.06 1034.77 1034.56 1034.28 1034.22 1034.12 1033.93 1033.66 1033.39 1033.14
1036.13 1036.14 1035.90 1035.94 1036.13 1036.31 1036.34 1036.30 1036.25 1037.04 1037.24 1037.28 1037.34 1037.09 1036.78 1036.60 1036.35 1036.22 1035.99 1035.86 1035.71 1035.56 1035.39 1035.38 1035.43 1035.30 1035.34 1034.99 1034.50 1034.29 1034.02 1033.73 1033.59 1033.63 1033.46 1033.22 1033.12 1032.89
1035.60 1036.04 1035.95 1035.95 1035.97 1036.19 1036.15 1036.36 1036.57 1036.81 1036.94 1037.09 1037.10 1036.96 1036.67 1036.58 1036.48 1036.26 1036.20 1035.94 1035.79 1035.38 1035.05 1034.90 1034.79 1034.65 1034.60 1034.34 1033.95 1033.55 1033.44 1033.32 1033.15 1032.98 1032.69 1032.47 1032.38 1032.15
1035.69 1036.10 1036.12 1036.22 1036.27 1036.40 1036.55 1036.66 1036.72 1036.89 1036.97 1037.13 1037.06 1036.97 1036.78 1036.55 1036.35 1036.13 1036.15 1035.90 1035.81 1035.47 1035.11 1034.85 1034.20 1033.95 1033.72 1033.55 1033.28 1032.95 1032.68 1032.53 1032.33 1032.19 1032.12 1031.84 1031.61 1031.40
1034.99 1035.71 1036.26 1036.35 1036.62 1036.66 1036.79 1036.89 1036.94 1036.96 1037.00 1037.07 1037.04 1036.94 1036.81 1036.67 1036.44 1036.23 1036.00 1035.76 1035.51 1035.09 1034.75 1034.49 1034.14 1033.74 1033.30 1032.64 1032.47 1032.00 1031.80 1031.71 1031.63 1031.48 1031.42 1031.34 1031.00 1030.56
1034.63 1035.51 1036.21 1036.33 1036.49 1036.57 1036.72 1036.85 1036.93 1036.83 1036.73 1037.12 1037.00 1036.90 1036.79 1036.57 1036.32 1036.11 1035.82 1035.52 1035.12 1034.70 1034.28 1033.95 1033.65 1033.55 1032.96 1032.11 1031.55 1031.06 1030.85 1030.80 1030.86 1030.91 1030.69 1030.60 1030.34 1029.88
1034.41 1035.12 1035.64 1035.84 1036.11 1036.39 1036.61 1036.75 1036.74 1036.68 1036.64 1036.72 1036.72 1036.68 1036.56 1036.41 1036.22 1035.93 1035.62 1035.35 1034.87 1034.33 1033.82 1033.36 1033.02 1032.72 1032.40 1031.74 1031.13 1030.53 1029.88 1029.86 1030.03 1029.95 1029.98 1029.81 1029.41 1028.93
1034.25 1034.67 1035.02 1035.40 1035.70 1035.99 1036.24 1036.41 1036.35 1036.07 1035.93 1036.20 1036.32 1036.33 1036.19 1036.08 1035.87 1035.56 1035.20 1034.65 1034.15 1033.84 1033.45 1033.00 1032.52 1031.94 1031.79 1031.65 1031.05 1030.25 1029.86 1029.55 1029.50 1029.38 1029.12 1029.10 1028.65 1028.21
1033.78 1034.18 1034.54 1034.86 1035.10 1035.44 1035.86 1035.99 1035.96 1035.64 1035.59 1035.82 1035.91 1035.87 1035.73 1035.60 1035.34 1035.01 1034.66 1034.31 1033.93 1033.52 1032.99 1032.48 1032.16 1031.94 1031.73 1031.43 1030.61 1030.12 1029.69 1029.18 1028.82 1028.59 1028.22 1027.97 1027.88 1027.12
1033.39 1033.73 1034.05 1034.15 1034.25 1034.56 1034.95 1035.43 1035.42 1035.29 1035.33 1035.44 1035.45 1035.29 1035.15 1034.95 1034.71 1034.41 1034.04 1033.67 1033.35 1032.99 1032.62 1032.08 1031.70 1031.39 1031.01 1030.69 1030.10 1029.52 1029.16 1028.80 1028.41 1027.88 1027.19 1027.08 1026.69 1026.25
Wind_Speed
6 6 5 4 4 4 4 3 4 4 2 2 2 1 2 3 4 4 4 6 8 8 8 8 8 8 8 8 8 7 6 7 9 10 10 11 11 11
5 7 6 4 4 4 4 3 3 3 4 1 1 2 2 2 2 3 3 6 5 7 7 7 7 8 8 7 7 6 5 6 7 8 10 10 11 11
7 6 7 6 4 4 4 4 4 3 4 2 2 2 2 3 4 4 2 2 2 5 7 8 7 7 7 6 6 6 6 5 6 8 10 11 11 11
7 7 6 5 6 5 4 5 5 4 4 3 1 1 2 2 1 2 3 3 2 3 6 7 7 8 7 7 6 7 7 7 8 9 10 10 11 12
6 6 6 6 5 4 5 5 4 4 4 4 2 1 1 2 2 3 2 2 3 3 5 7 6 6 6 8 8 7 8 9 9 10 11 11 11 12
6 6 6 6 6 5 5 4 4 4 3 3 2 1 1 1 1 0 3 2 3 3 4 5 4 6 8 9 7 8 8 9 9 10 10 11 12 12
6 6 6 7 9 7 4 4 4 3 3 2 1 1 1 1 0 1 1 2 3 2 1 3 2 3 4 8 7 7 7 9 10 11 12 12 12 13
5 5 5 7 6 7 6 5 4 2 2 2 1 2 2 2 2 1 1 2 2 2 1 3 2 3 4 4 11 5 8 11 12 13 13 14 14 13
5 5 3 4 4 4 3 3 2 1 1 3 2 1 1 2 3 3 2 2 2 4 3 4 1 4 4 6 13 10 12 11 13 14 14 14 13 12
5 4 3 4 3 4 2 2 2 3 3 2 2 4 4 5 4 3 3 3 4 4 3 5 3 4 4 4 13 13 12 13 9 12 12 14 15 17
4 3 3 2 3 3 2 1 3 4 5 9 9 10 10 12 10 1 3 2 6 5 3 3 4 3 3 4 5 13 16 7 9 12 15 16 17 18
3 3 5 4 5 5 4 3 3 5 4 5 5 5 7 6 12 5 3 4 4 5 4 2 2 2 3 3 2 1 2 7 12 14 16 17 17 4
2 2 3 6 5 5 5 3 5 6 7 3 4 4 4 5 5 5 5 5 4 5 6 3 2 2 2 6 2 3 3 4 4 5 12 16 18 15
2 2 2 6 6 6 6 8 11 8 1 1 2 3 4 4 4 3 4 4 5 7 5 5 3 3 2 5 7 3 4 4 4 4 4 11 16 19
2 5 8 6 8 7 8 9 7 1 1 1 2 3 3 3 4 4 5 6 6 5 6 5 5 5 3 8 10 6 8 4 4 4 5 7 6 5
5 4 5 8 9 7 5 3 2 2 2 2 2 2 2 2 2 2 2 3 3 5 5 6 7 7 8 8 9 10 7 6 4 4 6 5 6 6
5 1 1 1 1 1 1 1 0 1 1 2 2 3 4 4 4 2 3 3 3 5 6 4 6 8 8 10 9 9 8 7 8 8 7 8 8 7
2 2 2 2 2 2 2 1 0 3 1 3 2 2 2 3 5 5 6 4 7 7 7 3 4 6 5 7 14 10 10 8 8 8 7 7 8 8
2 3 3 3 3 3 3 3 2 2 2 2 2 3 5 5 9 5 6 7 8 8 7 4 4 3 9 11 7 16 9 9 8 7 7 7 8 10
3 3 4 4 3 3 3 3 2 3 2 3 3 3 3 3 3 6 6 7 8 8 8 8 6 5 7 10 8 11 17 7 8 8 5 7 9 20
4 4 4 4 4 4 4 3 3 3 4 4 4 4 4 3 6 7 7 15 15 8 9 8 8 17 5 3 7 8 5 13 11 7 5 5 9 10
3 4 4 4 4 4 4 4 3 3 4 4 4 4 4 4 6 7 7 8 8 8 9 8 6 5 2 7 10 9 4 4 9 18 22 21 8 11
4 4 4 4 4 4 4 4 4 5 4 4 4 4 4 5 7 7 8 8 8 8 9 9 7 4 7 7 13 10 11 9 8 9 10 17 22 24
Wind_Direction
78 85 77 60 46 43 53 74 141 137 136 227 116 48 77 87 43 42 55 28 33 29 24 19 16 11 9 6 4 3 18 23 29 23 17 10 3 360
80 83 72 60 56 48 53 59 58 123 119 152 67 141 40 97 74 43 31 22 36 28 23 17 12 10 6 359 5 16 19 24 15 10 7 4 1 355
77 77 75 70 57 49 46 46 45 57 110 31 100 94 64 36 15 9 9 0 13 25 9 359 355 353 351 5 12 7 358 348 350 357 351 348 348 347
93 85 82 79 69 66 61 54 48 30 103 121 126 70 87 76 2 348 342 352 356 331 343 336 336 339 339 347 350 341 358 349 338 331 333 336 337 335
107 103 105 95 81 77 76 68 52 43 49 110 109 61 80 63 4 341 291 311 304 296 336 340 338 334 336 330 328 328 330 329 325 323 326 330 330 329
91 87 85 93 97 89 79 77 74 69 50 75 84 94 112 220 109 262 351 353 319 325 335 326 297 306 306 307 302 305 304 310 310 315 319 319 320 320
91 88 82 86 88 77 90 56 56 64 62 61 54 78 329 6 94 279 1 318 310 281 1 332 346 325 305 314 305 292 291 309 310 310 310 310 312 313
106 98 98 91 87 89 87 89 102 98 55 61 6 17 345 9 1 351 309 349 326 323 19 290 332 314 296 281 286 259 296 302 307 307 307 308 308 309
118 124 147 117 106 111 90 69 20 332 192 169 184 239 297 306 343 329 324 307 271 296 0 299 283 293 292 297 293 288 287 296 300 307 308 309 311 312
126 128 125 141 150 104 60 25 3 342 308 282 219 256 253 266 259 234 246 270 280 283 269 275 258 251 276 294 296 295 297 296 299 303 307 308 307 309
121 117 141 145 210 182 140 258 278 285 287 286 269 264 273 279 278 220 269 271 284 276 262 255 268 262 248 269 285 292 290 288 303 293 301 306 306 305
169 199 213 186 238 226 192 202 247 260 269 290 300 302 304 301 287 258 197 231 265 291 256 262 295 302 312 272 268 259 300 290 291 294 303 304 305 298
186 190 210 224 224 252 259 198 223 257 261 280 282 274 275 268 260 252 232 222 229 239 254 270 253 278 220 277 251 269 257 270 271 277 287 295 297 295
191 218 240 251 248 258 275 275 274 291 15 294 278 279 278 275 279 278 285 275 253 252 252 251 218 199 220 280 276 258 251 245 237 248 260 279 288 292
203 243 243 255 265 276 289 286 288 54 262 314 268 262 272 279 292 286 282 277 274 273 280 250 237 252 214 267 280 272 264 238 234 246 260 264 259 263
247 266 257 248 244 236 265 310 292 246 216 225 251 252 277 307 292 265 272 278 274 279 267 263 261 258 267 262 266 272 264 250 223 236 250 260 257 255
211 185 247 252 239 246 276 256 320 360 325 304 319 303 300 297 293 287 287 285 271 283 281 276 266 256 253 254 263 264 259 246 249 254 256 266 266 257
207 169 211 194 181 193 188 239 308 306 277 295 278 281 292 297 298 292 285 264 276 278 274 252 269 290 289 266 249 264 264 257 254 255 256 257 270 270
153 185 187 181 197 199 198 196 228 240 247 248 253 265 276 276 296 291 286 284 283 284 278 256 250 226 276 279 277 265 254 254 255 255 249 250 259 267
149 183 194 192 194 193 204 208 230 243 243 246 249 243 251 251 269 276 277 278 277 277 276 273 266 260 259 274 287 280 257 253 231 242 254 264 261 270
204 204 189 191 194 192 199 203 205 225 240 235 249 245 245 223 267 271 273 284 286 291 289 283 277 283 277 308 291 287 273 267 257 255 258 259 270 280
184 189 201 199 198 194 199 206 221 246 248 248 246 240 243 235 259 272 274 277 276 275 279 285 290 287 278 274 278 283 270 258 266 270 271 267 265 273
202 200 205 204 201 196 197 207 216 229 228 230 236 241 242 255 264 268 273 275 275 274 273 277 279 271 269 270 277 281 284 281 283 283 274 269 268 270